Location: Bijele Vode
(45.2833°N, 16.2000°E)
Time: 11:08:58
(UTC+00:00)

METEOR M2 - Visible Passes

Search period start: 01 December 2021 00:00
Search period end: 11 December 2021 00:00
Orbit: 819 x 827 km, 98.4° (Epoch: 01 December)

Date Brightness Start Highest point End Pass type
(mag) Time Alt. Az. Time Alt. Az. Time Alt. Az.
01 Dec ? 05:35:34 10° NNE 05:40:17 31° E 05:44:58 10° SSE visible
01 Dec ? 16:59:53 10° SSE 17:05:10 60° ENE 17:10:28 10° N visible
01 Dec ? 18:41:50 10° SW 18:45:44 20° W 18:49:38 10° NW visible
02 Dec ? 05:16:11 10° NE 05:20:10 21° E 05:24:08 10° SE visible
02 Dec ? 16:40:20 10° SE 16:45:20 41° ENE 16:50:22 10° N visible
02 Dec ? 18:20:58 10° SSW 18:25:36 29° W 18:30:17 10° NW visible
03 Dec ? 04:57:15 10° ENE 05:00:00 14° E 05:02:43 10° ESE visible
03 Dec ? 16:21:01 10° ESE 16:25:34 29° ENE 16:30:08 10° N visible
03 Dec ? 18:00:27 10° S 18:05:33 43° W 18:10:41 10° NNW visible
04 Dec ? 16:02:00 10° ESE 16:05:52 21° ENE 16:09:45 10° NNE visible
04 Dec ? 17:40:13 10° S 17:45:33 64° WSW 17:50:55 10° NNW visible
05 Dec ? 15:43:21 10° E 15:46:13 15° ENE 15:49:05 10° NNE visible
05 Dec ? 17:20:14 10° SSE 17:25:36 88° E 17:31:02 10° NNW visible
05 Dec ? 19:04:05 10° WSW 19:06:30 13° W 19:08:55 10° WNW visible
06 Dec ? 05:36:06 10° NNE 05:40:52 31° E 05:45:34 10° SSE visible
06 Dec ? 17:00:27 10° SSE 17:05:44 61° ENE 17:11:02 10° N visible
06 Dec ? 18:42:29 10° SW 18:46:19 20° W 18:50:10 10° NW visible
07 Dec ? 05:16:42 10° NE 05:20:45 21° E 05:24:46 10° SE visible
07 Dec ? 16:40:53 10° SE 16:45:55 42° ENE 16:50:56 10° N visible
07 Dec ? 18:21:35 10° SSW 18:26:11 29° W 18:30:49 10° NW visible
08 Dec ? 04:57:44 10° NE 05:00:35 14° E 05:03:24 10° ESE visible
08 Dec ? 16:21:33 10° ESE 16:26:08 30° ENE 16:30:43 10° N visible
08 Dec ? 18:01:04 10° SSW 18:06:08 42° W 18:11:14 10° NNW visible
09 Dec ? 16:02:30 10° ESE 16:06:25 21° ENE 16:10:21 10° NNE visible
09 Dec ? 17:40:49 10° S 17:46:08 62° W 17:51:28 10° NNW visible
10 Dec ? 15:43:51 10° E 15:46:46 15° ENE 15:49:42 10° NNE visible
10 Dec ? 17:20:48 10° SSE 17:26:11 90° NNE 17:31:36 10° NNW visible
10 Dec ? 19:04:48 10° WSW 19:07:05 13° W 19:09:22 10° WNW visible
